Year,Month,Day,Hour,Minute,Value (Times are PST for temperature in C)
2009,07,03,00,00,16.10
2009,07,03,00,01,16.20
2009,07,03,00,02,16.20
2009,07,03,00,03,16.20
2009,07,03,00,04,16.20
2009,07,03,00,05,16.20
2009,07,03,00,06,16.20
2009,07,03,00,07,16.20
2009,07,03,00,08,16.30
2009,07,03,00,09,16.30
2009,07,03,00,10,16.30
2009,07,03,00,11,16.40
2009,07,03,00,12,16.50
2009,07,03,00,13,16.50
2009,07,03,00,14,16.60
2009,07,03,00,15,16.60
2009,07,03,00,16,16.70
2009,07,03,00,17,16.80
2009,07,03,00,18,16.80
2009,07,03,00,19,16.80
2009,07,03,00,20,16.80
2009,07,03,00,21,16.80
2009,07,03,00,22,16.80
2009,07,03,00,23,16.80
2009,07,03,00,24,16.70
2009,07,03,00,25,16.60
2009,07,03,00,26,16.60
2009,07,03,00,27,16.50
2009,07,03,00,28,16.40
2009,07,03,00,29,16.30
2009,07,03,00,30,16.20
2009,07,03,00,31,16.20
2009,07,03,00,32,16.10
2009,07,03,00,33,16.00
2009,07,03,00,34,15.90
2009,07,03,00,35,15.60
2009,07,03,00,36,15.40
2009,07,03,00,37,15.20
2009,07,03,00,38,15.10
2009,07,03,00,39,15.00
2009,07,03,00,40,15.00
2009,07,03,00,41,14.80
2009,07,03,00,42,14.70
2009,07,03,00,43,14.60
2009,07,03,00,44,14.50
2009,07,03,00,45,14.50
2009,07,03,00,46,14.40
2009,07,03,00,47,14.40
2009,07,03,00,48,14.40
2009,07,03,00,49,14.30
2009,07,03,00,50,14.20
2009,07,03,00,51,14.20
2009,07,03,00,52,14.20
2009,07,03,00,53,14.20
2009,07,03,00,54,14.20
2009,07,03,00,55,14.20
2009,07,03,00,56,14.20
2009,07,03,00,57,14.20
2009,07,03,00,58,14.20
2009,07,03,00,59,14.20
2009,07,03,01,00,14.20
2009,07,03,01,01,14.10
2009,07,03,01,02,14.10
2009,07,03,01,03,14.10
2009,07,03,01,04,14.10
2009,07,03,01,05,14.10
2009,07,03,01,06,14.10
2009,07,03,01,07,14.10
2009,07,03,01,08,14.10
2009,07,03,01,09,14.10
2009,07,03,01,10,14.10
2009,07,03,01,11,14.10
2009,07,03,01,12,14.10
2009,07,03,01,13,14.20
2009,07,03,01,14,14.40
2009,07,03,01,15,14.50
2009,07,03,01,16,14.80
2009,07,03,01,17,15.00
2009,07,03,01,18,15.10
2009,07,03,01,19,15.30
2009,07,03,01,20,15.40
2009,07,03,01,21,15.50
2009,07,03,01,22,15.50
2009,07,03,01,23,15.60
2009,07,03,01,24,15.60
2009,07,03,01,25,15.70
2009,07,03,01,26,15.80
2009,07,03,01,27,15.80
2009,07,03,01,28,15.90
2009,07,03,01,29,16.00
2009,07,03,01,30,16.00
2009,07,03,01,31,16.00
2009,07,03,01,32,15.90
2009,07,03,01,33,15.80
2009,07,03,01,34,15.70
2009,07,03,01,35,15.50
2009,07,03,01,36,15.40
2009,07,03,01,37,15.20
2009,07,03,01,38,15.00
2009,07,03,01,39,15.00
2009,07,03,01,40,14.80
2009,07,03,01,41,14.70
2009,07,03,01,42,14.60
2009,07,03,01,43,14.40
2009,07,03,01,44,14.30
2009,07,03,01,45,14.10
2009,07,03,01,46,13.90
2009,07,03,01,47,13.80
2009,07,03,01,48,13.60
2009,07,03,01,49,13.50
2009,07,03,01,50,13.30
2009,07,03,01,51,13.30
2009,07,03,01,52,13.20
2009,07,03,01,53,13.10
2009,07,03,01,54,13.10
2009,07,03,01,55,13.00
2009,07,03,01,56,12.90
2009,07,03,01,57,12.80
2009,07,03,01,58,12.70
2009,07,03,01,59,12.60
2009,07,03,02,00,12.60
2009,07,03,02,01,12.60
2009,07,03,02,02,12.60
2009,07,03,02,03,12.60
2009,07,03,02,04,12.60
2009,07,03,02,05,12.60
2009,07,03,02,06,12.60
2009,07,03,02,07,12.50
2009,07,03,02,08,12.50
2009,07,03,02,09,12.50
2009,07,03,02,10,12.50
2009,07,03,02,11,12.60
2009,07,03,02,12,12.50
2009,07,03,02,13,12.50
2009,07,03,02,14,12.60
2009,07,03,02,15,12.60
2009,07,03,02,16,12.70
2009,07,03,02,17,12.70
2009,07,03,02,18,12.80
2009,07,03,02,19,12.90
2009,07,03,02,20,13.00
2009,07,03,02,21,13.10
2009,07,03,02,22,13.10
2009,07,03,02,23,13.20
2009,07,03,02,24,13.30
2009,07,03,02,25,13.30
2009,07,03,02,26,13.40
2009,07,03,02,27,13.50
2009,07,03,02,28,13.50
2009,07,03,02,29,13.60
2009,07,03,02,30,13.70
2009,07,03,02,31,13.80
2009,07,03,02,32,13.80
2009,07,03,02,33,13.80
2009,07,03,02,34,13.90
2009,07,03,02,35,13.80
2009,07,03,02,36,13.80
2009,07,03,02,37,13.80
2009,07,03,02,38,13.70
2009,07,03,02,39,13.60
2009,07,03,02,40,13.50
2009,07,03,02,41,13.40
2009,07,03,02,42,13.40
2009,07,03,02,43,13.30
2009,07,03,02,44,13.20
2009,07,03,02,45,13.20
2009,07,03,02,46,13.20
2009,07,03,02,47,13.20
2009,07,03,02,48,13.20
2009,07,03,02,49,13.20
2009,07,03,02,50,13.20
2009,07,03,02,51,13.20
2009,07,03,02,52,13.20
2009,07,03,02,53,13.10
2009,07,03,02,54,13.10
2009,07,03,02,55,13.10
2009,07,03,02,56,13.10
2009,07,03,02,57,13.10
2009,07,03,02,58,13.20
2009,07,03,02,59,13.20
2009,07,03,03,00,13.20
2009,07,03,03,01,13.10
2009,07,03,03,02,13.10
2009,07,03,03,03,13.10
2009,07,03,03,04,13.00
2009,07,03,03,05,13.00
2009,07,03,03,06,13.00
2009,07,03,03,07,12.90
2009,07,03,03,08,12.90
2009,07,03,03,09,12.80
2009,07,03,03,10,12.70
2009,07,03,03,11,12.60
2009,07,03,03,12,12.50
2009,07,03,03,13,12.40
2009,07,03,03,14,12.40
2009,07,03,03,15,12.40
2009,07,03,03,16,12.50
2009,07,03,03,17,12.60
2009,07,03,03,18,12.70
2009,07,03,03,19,12.80
2009,07,03,03,20,13.00
2009,07,03,03,21,13.20
2009,07,03,03,22,13.30
2009,07,03,03,23,13.40
2009,07,03,03,24,13.50
2009,07,03,03,25,13.60
2009,07,03,03,26,13.70
2009,07,03,03,27,13.70
2009,07,03,03,28,13.80
2009,07,03,03,29,13.80
2009,07,03,03,30,13.80
2009,07,03,03,31,13.80
2009,07,03,03,32,13.80
2009,07,03,03,33,13.80
2009,07,03,03,34,13.70
2009,07,03,03,35,13.70
2009,07,03,03,36,13.70
2009,07,03,03,37,13.60
2009,07,03,03,38,13.50
2009,07,03,03,39,13.40
2009,07,03,03,40,13.20
2009,07,03,03,41,13.10
2009,07,03,03,42,13.10
2009,07,03,03,43,12.90
2009,07,03,03,44,12.80
2009,07,03,03,45,12.80
2009,07,03,03,46,12.60
2009,07,03,03,47,12.50
2009,07,03,03,48,12.50
2009,07,03,03,49,12.40
2009,07,03,03,50,12.40
2009,07,03,03,51,12.40
2009,07,03,03,52,12.40
2009,07,03,03,53,12.40
2009,07,03,03,54,12.50
2009,07,03,03,55,12.50
2009,07,03,03,56,12.60
2009,07,03,03,57,12.60
2009,07,03,03,58,12.60
2009,07,03,03,59,12.60
2009,07,03,04,00,12.70
2009,07,03,04,01,12.70
2009,07,03,04,02,12.70
2009,07,03,04,03,12.70
2009,07,03,04,04,12.70
2009,07,03,04,05,12.80
2009,07,03,04,06,12.90
2009,07,03,04,07,13.10
2009,07,03,04,08,13.20
2009,07,03,04,09,13.30
2009,07,03,04,10,13.40
2009,07,03,04,11,13.50
2009,07,03,04,12,13.60
2009,07,03,04,13,13.60
2009,07,03,04,14,13.60
2009,07,03,04,15,13.60
2009,07,03,04,16,13.60
2009,07,03,04,17,13.70
2009,07,03,04,18,13.70
2009,07,03,04,19,13.80
2009,07,03,04,20,13.80
2009,07,03,04,21,13.90
2009,07,03,04,22,14.00
2009,07,03,04,23,14.00
2009,07,03,04,24,14.00
2009,07,03,04,25,14.00
2009,07,03,04,26,14.00
2009,07,03,04,27,14.10
2009,07,03,04,28,14.00
2009,07,03,04,29,14.00
2009,07,03,04,30,14.00
2009,07,03,04,31,14.00
2009,07,03,04,32,14.10
2009,07,03,04,33,14.20
2009,07,03,04,34,14.20
2009,07,03,04,35,14.20
2009,07,03,04,36,14.20
2009,07,03,04,37,14.20
2009,07,03,04,38,14.10
2009,07,03,04,39,14.00
2009,07,03,04,40,13.90
2009,07,03,04,41,13.80
2009,07,03,04,42,13.60
2009,07,03,04,43,13.40
2009,07,03,04,44,13.30
2009,07,03,04,45,13.10
2009,07,03,04,46,13.00
2009,07,03,04,47,12.80
2009,07,03,04,48,12.60
2009,07,03,04,49,12.50
2009,07,03,04,50,12.40
2009,07,03,04,51,12.30
2009,07,03,04,52,12.20
2009,07,03,04,53,12.10
2009,07,03,04,54,12.10
2009,07,03,04,55,12.00
2009,07,03,04,56,11.90
2009,07,03,04,57,11.90
2009,07,03,04,58,11.90
2009,07,03,04,59,11.80
2009,07,03,05,00,11.70
2009,07,03,05,01,11.70
2009,07,03,05,02,11.60
2009,07,03,05,03,11.60
2009,07,03,05,04,11.60
2009,07,03,05,05,11.50
2009,07,03,05,06,11.40
2009,07,03,05,07,11.40
2009,07,03,05,08,11.40
2009,07,03,05,09,11.30
2009,07,03,05,10,11.30
2009,07,03,05,11,11.40
2009,07,03,05,12,11.40
2009,07,03,05,13,11.40
2009,07,03,05,14,11.30
2009,07,03,05,15,11.30
2009,07,03,05,16,11.30
2009,07,03,05,17,11.20
2009,07,03,05,18,11.20
2009,07,03,05,19,11.20
2009,07,03,05,20,11.20
2009,07,03,05,21,11.20
2009,07,03,05,22,11.20
2009,07,03,05,23,11.10
2009,07,03,05,24,11.10
2009,07,03,05,25,11.10
2009,07,03,05,26,11.10
2009,07,03,05,27,11.00
2009,07,03,05,28,10.90
2009,07,03,05,29,10.80
2009,07,03,05,30,10.70
2009,07,03,05,31,10.60
2009,07,03,05,32,10.50
2009,07,03,05,33,10.40
2009,07,03,05,34,10.40
2009,07,03,05,35,10.40
2009,07,03,05,36,10.40
2009,07,03,05,37,10.40
2009,07,03,05,38,10.50
2009,07,03,05,39,10.60
2009,07,03,05,40,10.70
2009,07,03,05,41,10.60
2009,07,03,05,42,10.60
2009,07,03,05,43,10.60
2009,07,03,05,44,10.60
2009,07,03,05,45,10.60
2009,07,03,05,46,10.70
2009,07,03,05,47,10.70
2009,07,03,05,48,10.60
2009,07,03,05,49,10.60
2009,07,03,05,50,10.60
2009,07,03,05,51,10.50
2009,07,03,05,52,10.50
2009,07,03,05,53,10.40
2009,07,03,05,54,10.40
2009,07,03,05,55,10.50
2009,07,03,05,56,10.60
2009,07,03,05,57,10.70
2009,07,03,05,58,10.80
2009,07,03,05,59,10.90
2009,07,03,06,00,11.00
2009,07,03,06,01,11.10
2009,07,03,06,02,11.30
2009,07,03,06,03,11.40
2009,07,03,06,04,11.50
2009,07,03,06,05,11.70
2009,07,03,06,06,11.80
2009,07,03,06,07,11.90
2009,07,03,06,08,12.10
2009,07,03,06,09,12.20
2009,07,03,06,10,12.30
2009,07,03,06,11,12.30
2009,07,03,06,12,12.40
2009,07,03,06,13,12.40
2009,07,03,06,14,12.30
2009,07,03,06,15,12.30
2009,07,03,06,16,12.20
2009,07,03,06,17,12.10
2009,07,03,06,18,12.10
2009,07,03,06,19,12.00
2009,07,03,06,20,12.00
2009,07,03,06,21,11.90
2009,07,03,06,22,11.90
2009,07,03,06,23,11.80
2009,07,03,06,24,11.80
2009,07,03,06,25,11.70
2009,07,03,06,26,11.70
2009,07,03,06,27,11.70
2009,07,03,06,28,11.70
2009,07,03,06,29,11.80
2009,07,03,06,30,11.80
2009,07,03,06,31,11.80
2009,07,03,06,32,11.80
2009,07,03,06,33,11.90
2009,07,03,06,34,11.80
2009,07,03,06,35,11.80
2009,07,03,06,36,11.80
2009,07,03,06,37,11.80
2009,07,03,06,38,11.90
2009,07,03,06,39,12.00
2009,07,03,06,40,12.00
2009,07,03,06,41,12.10
2009,07,03,06,42,12.20
2009,07,03,06,43,12.30
2009,07,03,06,44,12.30
2009,07,03,06,45,12.50
2009,07,03,06,46,12.60
2009,07,03,06,47,12.70
2009,07,03,06,48,12.70
2009,07,03,06,49,12.80
2009,07,03,06,50,12.90
2009,07,03,06,51,13.10
2009,07,03,06,52,13.20
2009,07,03,06,53,13.30
2009,07,03,06,54,13.40
2009,07,03,06,55,13.50
2009,07,03,06,56,13.70
2009,07,03,06,57,13.80
2009,07,03,06,58,14.00
2009,07,03,06,59,14.00
2009,07,03,07,00,14.10
2009,07,03,07,01,14.10
2009,07,03,07,02,14.20
2009,07,03,07,03,14.40
2009,07,03,07,04,14.60
2009,07,03,07,05,14.70
2009,07,03,07,06,14.80
2009,07,03,07,07,14.90
2009,07,03,07,08,15.00
2009,07,03,07,09,15.00
2009,07,03,07,10,15.00
2009,07,03,07,11,15.00
2009,07,03,07,12,15.00
2009,07,03,07,13,15.00
2009,07,03,07,14,15.00
2009,07,03,07,15,15.00
2009,07,03,07,16,15.00
2009,07,03,07,17,15.00
2009,07,03,07,18,15.10
2009,07,03,07,19,15.20
2009,07,03,07,20,15.20
2009,07,03,07,21,15.30
2009,07,03,07,22,15.30
2009,07,03,07,23,15.40
2009,07,03,07,24,15.50
2009,07,03,07,25,15.50
2009,07,03,07,26,15.60
2009,07,03,07,27,15.70
2009,07,03,07,28,15.80
2009,07,03,07,29,15.90
2009,07,03,07,30,16.00
2009,07,03,07,31,16.20
2009,07,03,07,32,16.30
2009,07,03,07,33,16.40
2009,07,03,07,34,16.50
2009,07,03,07,35,16.70
2009,07,03,07,36,16.80
2009,07,03,07,37,16.90
2009,07,03,07,38,17.10
2009,07,03,07,39,17.20
2009,07,03,07,40,17.20
2009,07,03,07,41,17.30
2009,07,03,07,42,17.30
2009,07,03,07,43,17.40
2009,07,03,07,44,17.40
2009,07,03,07,45,17.50
2009,07,03,07,46,17.50
2009,07,03,07,47,17.50
2009,07,03,07,48,17.60
2009,07,03,07,49,17.60
2009,07,03,07,50,17.70
2009,07,03,07,51,17.70
2009,07,03,07,52,17.80
2009,07,03,07,53,17.80
2009,07,03,07,54,17.80
2009,07,03,07,55,17.90
2009,07,03,07,56,17.90
2009,07,03,07,57,17.90
2009,07,03,07,58,17.90
2009,07,03,07,59,18.00
2009,07,03,08,00,18.10
2009,07,03,08,01,18.20
2009,07,03,08,02,18.20
2009,07,03,08,03,18.30
2009,07,03,08,04,18.30
2009,07,03,08,05,18.30
2009,07,03,08,06,18.30
2009,07,03,08,07,18.30
2009,07,03,08,08,18.30
2009,07,03,08,09,18.30
2009,07,03,08,10,18.20
2009,07,03,08,11,18.20
2009,07,03,08,12,18.20
2009,07,03,08,13,18.20
2009,07,03,08,14,18.20
2009,07,03,08,15,18.20
2009,07,03,08,16,18.20
2009,07,03,08,17,18.20
2009,07,03,08,18,18.20
2009,07,03,08,19,18.20
2009,07,03,08,20,18.30
2009,07,03,08,21,18.30
2009,07,03,08,22,18.30
2009,07,03,08,23,18.20
2009,07,03,08,24,18.20
2009,07,03,08,25,18.20
2009,07,03,08,26,18.20
2009,07,03,08,27,18.20
2009,07,03,08,28,18.20
2009,07,03,08,29,18.20
2009,07,03,08,30,18.20
2009,07,03,08,31,18.20
2009,07,03,08,32,18.20
2009,07,03,08,33,18.20
2009,07,03,08,34,18.30
2009,07,03,08,35,18.30
2009,07,03,08,36,18.30
2009,07,03,08,37,18.30
2009,07,03,08,38,18.30
2009,07,03,08,39,18.30
2009,07,03,08,40,18.20
2009,07,03,08,41,18.20
2009,07,03,08,42,18.20
2009,07,03,08,43,18.20
2009,07,03,08,44,18.30
2009,07,03,08,45,18.30
2009,07,03,08,46,18.30
2009,07,03,08,47,18.30
2009,07,03,08,48,18.40
2009,07,03,08,49,18.40
2009,07,03,08,50,18.50
2009,07,03,08,51,18.50
2009,07,03,08,52,18.50
2009,07,03,08,53,18.50
2009,07,03,08,54,18.50
2009,07,03,08,55,18.40
2009,07,03,08,56,18.50
2009,07,03,08,57,18.50
2009,07,03,08,58,18.40
2009,07,03,08,59,18.40
2009,07,03,09,00,18.40
2009,07,03,09,01,18.40
2009,07,03,09,02,18.50
2009,07,03,09,03,18.50
2009,07,03,09,04,18.50
2009,07,03,09,05,18.40
2009,07,03,09,06,18.40
2009,07,03,09,07,18.30
2009,07,03,09,08,18.30
2009,07,03,09,09,18.30
2009,07,03,09,10,18.30
2009,07,03,09,11,18.30
2009,07,03,09,12,18.30
2009,07,03,09,13,18.30
2009,07,03,09,14,18.20
2009,07,03,09,15,18.20
2009,07,03,09,16,18.20
2009,07,03,09,17,18.30
2009,07,03,09,18,18.40
2009,07,03,09,19,18.40
2009,07,03,09,20,18.30
2009,07,03,09,21,18.30
2009,07,03,09,22,18.30
2009,07,03,09,23,18.30
2009,07,03,09,24,18.20
2009,07,03,09,25,18.10
2009,07,03,09,26,18.10
2009,07,03,09,27,18.10
2009,07,03,09,28,18.10
2009,07,03,09,29,18.10
2009,07,03,09,30,18.10
2009,07,03,09,31,18.00
2009,07,03,09,32,18.10
2009,07,03,09,33,18.10
2009,07,03,09,34,18.10
2009,07,03,09,35,18.10
2009,07,03,09,36,18.20
2009,07,03,09,37,18.20
2009,07,03,09,38,18.20
2009,07,03,09,39,18.20
2009,07,03,09,40,18.10
2009,07,03,09,41,18.10
2009,07,03,09,42,18.10
2009,07,03,09,43,18.10
2009,07,03,09,44,18.10
2009,07,03,09,45,18.20
2009,07,03,09,46,18.20
2009,07,03,09,47,18.20
2009,07,03,09,48,18.20
2009,07,03,09,49,18.20
2009,07,03,09,50,18.20
2009,07,03,09,51,18.30
2009,07,03,09,52,18.30
2009,07,03,09,53,18.30
2009,07,03,09,54,18.40
2009,07,03,09,55,18.40
2009,07,03,09,56,18.40
2009,07,03,09,57,18.40
2009,07,03,09,58,18.40
2009,07,03,09,59,18.40
2009,07,03,10,00,18.50
2009,07,03,10,01,18.50
2009,07,03,10,02,18.60
2009,07,03,10,03,18.60
2009,07,03,10,04,18.60
2009,07,03,10,05,18.60
2009,07,03,10,06,18.50
2009,07,03,10,07,18.50
2009,07,03,10,08,18.50
2009,07,03,10,09,18.60
2009,07,03,10,10,18.60
2009,07,03,10,11,18.50
2009,07,03,10,12,18.50
2009,07,03,10,13,18.40
2009,07,03,10,14,18.50
2009,07,03,10,15,18.50
2009,07,03,10,16,18.60
2009,07,03,10,17,18.60
2009,07,03,10,18,18.50
2009,07,03,10,19,18.50
2009,07,03,10,20,18.40
2009,07,03,10,21,18.40
2009,07,03,10,22,18.40
2009,07,03,10,23,18.50
2009,07,03,10,24,18.50
2009,07,03,10,25,18.50
2009,07,03,10,26,18.50
2009,07,03,10,27,18.50
2009,07,03,10,28,18.60
2009,07,03,10,29,18.60
2009,07,03,10,30,18.60
2009,07,03,10,31,18.60
2009,07,03,10,32,18.50
2009,07,03,10,33,18.50
2009,07,03,10,34,18.50
2009,07,03,10,35,18.50
2009,07,03,10,36,18.50
2009,07,03,10,37,18.40
2009,07,03,10,38,18.40
2009,07,03,10,39,18.30
2009,07,03,10,40,18.30
2009,07,03,10,41,18.40
2009,07,03,10,42,18.30
2009,07,03,10,43,18.30
2009,07,03,10,44,18.20
2009,07,03,10,45,18.10
2009,07,03,10,46,18.10
2009,07,03,10,47,18.20
2009,07,03,10,48,18.30
2009,07,03,10,49,18.40
2009,07,03,10,50,18.50
2009,07,03,10,51,18.60
2009,07,03,10,52,18.70
2009,07,03,10,53,18.80
2009,07,03,10,54,18.80
2009,07,03,10,55,18.70
2009,07,03,10,56,18.70
2009,07,03,10,57,18.60
2009,07,03,10,58,18.50
2009,07,03,10,59,18.40
2009,07,03,11,00,18.40
2009,07,03,11,01,18.40
2009,07,03,11,02,18.40
2009,07,03,11,03,18.40
2009,07,03,11,04,18.50
2009,07,03,11,05,18.50
2009,07,03,11,06,18.40
2009,07,03,11,07,18.40
2009,07,03,11,08,18.40
2009,07,03,11,09,18.40
2009,07,03,11,10,18.40
2009,07,03,11,11,18.40
2009,07,03,11,12,18.30
2009,07,03,11,13,18.30
2009,07,03,11,14,18.30
2009,07,03,11,15,18.20
2009,07,03,11,16,18.30
2009,07,03,11,17,18.40
2009,07,03,11,18,18.40
2009,07,03,11,19,18.50
2009,07,03,11,20,18.50
2009,07,03,11,21,18.50
2009,07,03,11,22,18.50
2009,07,03,11,23,18.60
2009,07,03,11,24,18.70
2009,07,03,11,25,18.80
2009,07,03,11,26,18.80
2009,07,03,11,27,18.80
2009,07,03,11,28,18.80
2009,07,03,11,29,18.80
2009,07,03,11,30,18.90
2009,07,03,11,31,18.90
2009,07,03,11,32,19.00
2009,07,03,11,33,19.10
2009,07,03,11,34,19.20
2009,07,03,11,35,19.20
2009,07,03,11,36,19.30
2009,07,03,11,37,19.30
2009,07,03,11,38,19.40
2009,07,03,11,39,19.40
2009,07,03,11,40,19.30
2009,07,03,11,41,19.20
2009,07,03,11,42,19.20
2009,07,03,11,43,19.20
2009,07,03,11,44,19.10
2009,07,03,11,45,19.10
2009,07,03,11,46,19.10
2009,07,03,11,47,19.10
2009,07,03,11,48,19.10
2009,07,03,11,49,19.10
2009,07,03,11,50,19.10
2009,07,03,11,51,19.10
2009,07,03,11,52,19.10
2009,07,03,11,53,19.10
2009,07,03,11,54,19.20
2009,07,03,11,55,19.30
2009,07,03,11,56,19.30
2009,07,03,11,57,19.30
2009,07,03,11,58,19.40
2009,07,03,11,59,19.50
2009,07,03,12,00,19.60
2009,07,03,12,01,19.70
2009,07,03,12,02,19.70
2009,07,03,12,03,19.70
2009,07,03,12,04,19.70
2009,07,03,12,05,19.80
2009,07,03,12,06,19.80
2009,07,03,12,07,19.80
2009,07,03,12,08,19.80
2009,07,03,12,09,19.80
2009,07,03,12,10,19.80
2009,07,03,12,11,19.70
2009,07,03,12,12,19.60
2009,07,03,12,13,19.60
2009,07,03,12,14,19.70
2009,07,03,12,15,19.70
2009,07,03,12,16,19.70
2009,07,03,12,17,19.80
2009,07,03,12,18,19.90
2009,07,03,12,19,19.90
2009,07,03,12,20,20.00
2009,07,03,12,21,20.10
2009,07,03,12,22,20.10
2009,07,03,12,23,20.10
2009,07,03,12,24,20.10
2009,07,03,12,25,20.10
2009,07,03,12,26,20.00
2009,07,03,12,27,19.90
2009,07,03,12,28,19.80
2009,07,03,12,29,19.80
2009,07,03,12,30,19.80
2009,07,03,12,31,19.80
2009,07,03,12,32,19.80
2009,07,03,12,33,19.80
2009,07,03,12,34,19.80
2009,07,03,12,35,19.70
2009,07,03,12,36,19.70
2009,07,03,12,37,19.80
2009,07,03,12,38,19.80
2009,07,03,12,39,19.80
2009,07,03,12,40,19.80
2009,07,03,12,41,19.90
2009,07,03,12,42,19.90
2009,07,03,12,43,19.90
2009,07,03,12,44,19.80
2009,07,03,12,45,19.70
2009,07,03,12,46,19.80
2009,07,03,12,47,19.80
2009,07,03,12,48,19.90
2009,07,03,12,49,20.00
2009,07,03,12,50,20.10
2009,07,03,12,51,20.20
2009,07,03,12,52,20.20
2009,07,03,12,53,20.20
2009,07,03,12,54,20.20
2009,07,03,12,55,20.20
2009,07,03,12,56,20.20
2009,07,03,12,57,20.30
2009,07,03,12,58,20.30
2009,07,03,12,59,20.30
2009,07,03,13,00,20.30
2009,07,03,13,01,20.30
2009,07,03,13,02,20.40
2009,07,03,13,03,20.40
2009,07,03,13,04,20.30
2009,07,03,13,05,20.20
2009,07,03,13,06,20.20
2009,07,03,13,07,20.20
2009,07,03,13,08,20.10
2009,07,03,13,09,20.10
2009,07,03,13,10,20.10
2009,07,03,13,11,20.20
2009,07,03,13,12,20.20
2009,07,03,13,13,20.30
2009,07,03,13,14,20.30
2009,07,03,13,15,20.40
2009,07,03,13,16,20.40
2009,07,03,13,17,20.40
2009,07,03,13,18,20.50
2009,07,03,13,19,20.50
2009,07,03,13,20,20.50
2009,07,03,13,21,20.60
2009,07,03,13,22,20.70
2009,07,03,13,23,20.80
2009,07,03,13,24,20.90
2009,07,03,13,25,21.00
2009,07,03,13,26,21.10
2009,07,03,13,27,21.20
2009,07,03,13,28,21.20
2009,07,03,13,29,21.20
2009,07,03,13,30,21.10
2009,07,03,13,31,21.10
2009,07,03,13,32,21.10
2009,07,03,13,33,21.20
2009,07,03,13,34,21.20
2009,07,03,13,35,21.20
2009,07,03,13,36,21.10
2009,07,03,13,37,21.10
2009,07,03,13,38,21.10
2009,07,03,13,39,21.10
2009,07,03,13,40,21.10
2009,07,03,13,41,21.10
2009,07,03,13,42,21.00
2009,07,03,13,43,21.10
2009,07,03,13,44,21.10
2009,07,03,13,45,21.10
2009,07,03,13,46,21.00
2009,07,03,13,47,21.10
2009,07,03,13,48,21.20
2009,07,03,13,49,21.20
2009,07,03,13,50,21.30
2009,07,03,13,51,21.30
2009,07,03,13,52,21.30
2009,07,03,13,53,21.30
2009,07,03,13,54,21.20
2009,07,03,13,55,21.20
2009,07,03,13,56,21.30
2009,07,03,13,57,21.40
2009,07,03,13,58,21.60
2009,07,03,13,59,21.60
2009,07,03,14,00,21.70
2009,07,03,14,01,21.80
2009,07,03,14,02,21.80
2009,07,03,14,03,21.90
2009,07,03,14,04,21.90
2009,07,03,14,05,21.90
2009,07,03,14,06,21.90
2009,07,03,14,07,21.80
2009,07,03,14,08,21.80
2009,07,03,14,09,21.80
2009,07,03,14,10,21.80
2009,07,03,14,11,21.90
2009,07,03,14,12,21.90
2009,07,03,14,13,22.00
2009,07,03,14,14,22.10
2009,07,03,14,15,22.00
2009,07,03,14,16,22.00
2009,07,03,14,17,22.00
2009,07,03,14,18,22.10
2009,07,03,14,19,22.10
2009,07,03,14,20,22.10
2009,07,03,14,21,22.00
2009,07,03,14,22,21.90
2009,07,03,14,23,21.80
2009,07,03,14,24,21.80
2009,07,03,14,25,21.90
2009,07,03,14,26,21.90
2009,07,03,14,27,22.00
2009,07,03,14,28,22.00
2009,07,03,14,29,22.00
2009,07,03,14,30,22.10
2009,07,03,14,31,22.10
2009,07,03,14,32,22.20
2009,07,03,14,33,22.30
2009,07,03,14,34,22.40
2009,07,03,14,35,22.50
2009,07,03,14,36,22.60
2009,07,03,14,37,22.70
2009,07,03,14,38,22.60
2009,07,03,14,39,22.50
2009,07,03,14,40,22.60
2009,07,03,14,41,22.60
2009,07,03,14,42,22.60
2009,07,03,14,43,22.60
2009,07,03,14,44,22.50
2009,07,03,14,45,22.40
2009,07,03,14,46,22.40
2009,07,03,14,47,22.40
2009,07,03,14,48,22.60
2009,07,03,14,49,22.70
2009,07,03,14,50,22.80
2009,07,03,14,51,22.90
2009,07,03,14,52,23.00
2009,07,03,14,53,22.90
2009,07,03,14,54,22.90
2009,07,03,14,55,23.00
2009,07,03,14,56,23.10
2009,07,03,14,57,23.10
2009,07,03,14,58,23.10
2009,07,03,14,59,23.10
2009,07,03,15,00,23.10
2009,07,03,15,01,23.10
2009,07,03,15,02,23.20
2009,07,03,15,03,23.40
2009,07,03,15,04,23.50
2009,07,03,15,05,23.60
2009,07,03,15,06,23.70
2009,07,03,15,07,23.80
2009,07,03,15,08,23.80
2009,07,03,15,09,23.70
2009,07,03,15,10,23.70
2009,07,03,15,11,23.80
2009,07,03,15,12,23.80
2009,07,03,15,13,23.90
2009,07,03,15,14,23.90
2009,07,03,15,15,23.90
2009,07,03,15,16,23.80
2009,07,03,15,17,23.80
2009,07,03,15,18,23.90
2009,07,03,15,19,23.90
2009,07,03,15,20,23.90
2009,07,03,15,21,23.90
2009,07,03,15,22,24.00
2009,07,03,15,23,24.00
2009,07,03,15,24,24.10
2009,07,03,15,25,24.10
2009,07,03,15,26,24.10
2009,07,03,15,27,24.20
2009,07,03,15,28,24.20
2009,07,03,15,29,24.20
2009,07,03,15,30,24.20
2009,07,03,15,31,24.20
2009,07,03,15,32,24.10
2009,07,03,15,33,24.10
2009,07,03,15,34,24.10
2009,07,03,15,35,24.10
2009,07,03,15,36,24.10
2009,07,03,15,37,24.00
2009,07,03,15,38,24.10
2009,07,03,15,39,24.20
2009,07,03,15,40,24.20
2009,07,03,15,41,24.20
2009,07,03,15,42,24.20
2009,07,03,15,43,24.20
2009,07,03,15,44,24.30
2009,07,03,15,45,24.30
2009,07,03,15,46,24.30
2009,07,03,15,47,24.30
2009,07,03,15,48,24.20
2009,07,03,15,49,24.20
2009,07,03,15,50,24.10
2009,07,03,15,51,24.10
2009,07,03,15,52,24.10
2009,07,03,15,53,24.10
2009,07,03,15,54,24.20
2009,07,03,15,55,24.20
2009,07,03,15,56,24.30
2009,07,03,15,57,24.40
2009,07,03,15,58,24.40
2009,07,03,15,59,24.50
2009,07,03,16,00,24.50
2009,07,03,16,01,24.60
2009,07,03,16,02,24.60
2009,07,03,16,03,24.60
2009,07,03,16,04,24.70
2009,07,03,16,05,24.80
2009,07,03,16,06,24.80
2009,07,03,16,07,24.80
2009,07,03,16,08,24.70
2009,07,03,16,09,24.70
2009,07,03,16,10,24.70
2009,07,03,16,11,24.70
2009,07,03,16,12,24.70
2009,07,03,16,13,24.60
2009,07,03,16,14,24.60
2009,07,03,16,15,24.60
2009,07,03,16,16,24.70
2009,07,03,16,17,24.70
2009,07,03,16,18,24.60
2009,07,03,16,19,24.50
2009,07,03,16,20,24.40
2009,07,03,16,21,24.40
2009,07,03,16,22,24.50
2009,07,03,16,23,24.50
2009,07,03,16,24,24.60
2009,07,03,16,25,24.60
2009,07,03,16,26,24.70
2009,07,03,16,27,24.80
2009,07,03,16,28,24.90
2009,07,03,16,29,25.00
2009,07,03,16,30,25.10
2009,07,03,16,31,25.20
2009,07,03,16,32,25.20
2009,07,03,16,33,25.20
2009,07,03,16,34,25.20
2009,07,03,16,35,25.30
2009,07,03,16,36,25.40
2009,07,03,16,37,25.40
2009,07,03,16,38,25.40
2009,07,03,16,39,25.50
2009,07,03,16,40,25.50
2009,07,03,16,41,25.60
2009,07,03,16,42,25.60
2009,07,03,16,43,25.60
2009,07,03,16,44,25.60
2009,07,03,16,45,25.60
2009,07,03,16,46,25.70
2009,07,03,16,47,25.70
2009,07,03,16,48,25.80
2009,07,03,16,49,25.80
2009,07,03,16,50,25.90
2009,07,03,16,51,25.90
2009,07,03,16,52,25.90
2009,07,03,16,53,25.90
2009,07,03,16,54,25.90
2009,07,03,16,55,25.90
2009,07,03,16,56,25.90
2009,07,03,16,57,25.80
2009,07,03,16,58,25.80
2009,07,03,16,59,25.80
2009,07,03,17,00,25.80
2009,07,03,17,01,25.80
2009,07,03,17,02,25.80
2009,07,03,17,03,25.70
2009,07,03,17,04,25.70
2009,07,03,17,05,25.70
2009,07,03,17,06,25.70
2009,07,03,17,07,25.70
2009,07,03,17,08,25.70
2009,07,03,17,09,25.60
2009,07,03,17,10,25.60
2009,07,03,17,11,25.70
2009,07,03,17,12,25.70
2009,07,03,17,13,25.70
2009,07,03,17,14,25.70
2009,07,03,17,15,25.60
2009,07,03,17,16,25.50
2009,07,03,17,17,25.40
2009,07,03,17,18,25.40
2009,07,03,17,19,25.40